Weather History for KAKR - March, 2013

Change the Weather History Date:

Sunday, March 24, 2013

  Actual Average (KCAK) Record (KCAK)
Temperature  
Mean Temperature 30 °F 40 °F  
Max Temperature 36 °F 50 °F 82 °F (1910)
Min Temperature 25 °F 31 °F 8 °F (1906)
Degree Days  
Heating Degree Days 35 25  
Month to date heating degree days 690  
Since 1 July heating degree days 5234  
Cooling Degree Days 0 0  
Month to date cooling degree days 0  
Year to date cooling degree days 0  
Moisture  
Dew Point 21 °F    
Average Humidity 66    
Maximum Humidity 81    
Minimum Humidity 52    
Precipitation  
Precipitation 0.00 in 0.10 in - ()
Month to date precipitation 2.23  
Year to date precipitation 7.15  
Snow  
Snow 0.00 in 0.30 in - ()
Month to date snowfall 7.0  
Since 1 July snowfall 43.5  
Snow Depth -    
Sea Level Pressure  
Sea Level Pressure 29.79 in    
Wind  
Wind Speed 8 mph (ENE)    
Max Wind Speed 16 mph    
Max Gust Speed 22 mph    
Visibility 10 miles    
Events      
T = Trace of Precipitation, MM = Missing Value Source: NWS Daily Summary

Daily Weather History Graph

Daily Weather History Graph

Search for Another Location

Airport or City:

Trip Planner

Search our weather history database for the weather conditions in past years. The results will help you decide how hot, cold, wet, or windy it might be!

Date:

Astronomy

Mar. 24, 2013 Rise Set
Actual Time 7:22 AM EDT 7:42 PM EDT
Civil Twilight 6:54 AM EDT 8:10 PM EDT
Nautical Twilight 6:22 AM EDT 8:42 PM EDT
Astronomical Twilight 5:49 AM EDT 9:15 PM EDT
Moon 5:08 PM EDT (3/24) 5:32 AM EDT (3/24)
Length of Visible Light 13h 15m
Length of Day
12h 20m
Waxing Gibbous, 91% of the Moon is Illuminated
Mar 24
Waxing Gibbous
Mar 27
Full
Apr 3
Last Quarter
Apr 10
New
Apr 18
First Quarter

Hourly Weather History & Observations

Time (EDT) Temp. Windchill Dew Point Humidity Pressure Visibility Wind Dir Wind Speed Gust Speed Precip Events Conditions
12:54 AM 27.0 °F 19.5 °F 19.9 °F 75% 29.99 in 10.0 mi NE 6.9 mph - N/A   Clear
1:54 AM 27.0 °F 23.0 °F 19.9 °F 75% 30.00 in 10.0 mi ENE 3.5 mph - N/A   Clear
2:54 AM 27.0 °F - 19.9 °F 75% 29.99 in 10.0 mi Calm Calm - N/A   Clear
3:54 AM 25.0 °F 18.1 °F 19.9 °F 81% 29.99 in 10.0 mi ENE 5.8 mph - N/A   Clear
4:54 AM 26.1 °F 21.9 °F 21.0 °F 81% 29.97 in 10.0 mi ENE 3.5 mph - N/A   Clear
5:54 AM 27.0 °F 23.0 °F 21.0 °F 78% 29.97 in 10.0 mi Variable 3.5 mph - N/A   Clear
6:54 AM 27.0 °F 20.5 °F 21.0 °F 78% 29.96 in 10.0 mi East 5.8 mph - N/A   Clear
7:54 AM 27.0 °F 21.6 °F 21.0 °F 78% 29.96 in 10.0 mi Variable 4.6 mph - N/A   Clear
8:54 AM 28.0 °F 18.1 °F 21.9 °F 78% 29.94 in 10.0 mi ENE 11.5 mph 19.6 mph N/A   Clear
9:54 AM 28.0 °F 17.0 °F 21.9 °F 78% 29.91 in 10.0 mi East 13.8 mph 19.6 mph N/A   Clear
10:54 AM 30.0 °F 18.7 °F 21.0 °F 69% 29.85 in 10.0 mi ENE 16.1 mph - N/A   Clear
11:54 AM 32.0 °F 21.2 °F 19.9 °F 61% 29.81 in 10.0 mi ENE 16.1 mph 21.9 mph N/A   Clear
12:54 PM 34.0 °F 24.6 °F 19.9 °F 56% 29.79 in 10.0 mi ENE 13.8 mph 21.9 mph N/A   Clear
1:54 PM 35.1 °F 27.4 °F 19.0 °F 52% 29.77 in 10.0 mi ENE 10.4 mph - N/A   Clear
2:54 PM 34.0 °F 26.0 °F 19.9 °F 56% 29.74 in 10.0 mi ENE 10.4 mph - N/A   Partly Cloudy
3:54 PM 35.1 °F 29.3 °F 19.9 °F 54% 29.71 in 10.0 mi East 6.9 mph - N/A   Overcast
4:54 PM 35.1 °F 26.4 °F 19.9 °F 54% 29.65 in 10.0 mi ENE 12.7 mph 20.7 mph N/A   Overcast
5:54 PM 35.1 °F 26.4 °F 19.9 °F 54% 29.62 in 10.0 mi ENE 12.7 mph 20.7 mph N/A   Overcast
6:54 PM 35.1 °F 26.9 °F 19.9 °F 54% 29.60 in 10.0 mi ENE 11.5 mph - N/A   Overcast
7:54 PM 34.0 °F 25.5 °F 21.0 °F 59% 29.59 in 10.0 mi NE 11.5 mph - N/A   Overcast
8:54 PM 33.1 °F 24.9 °F 21.0 °F 61% 29.58 in 10.0 mi NE 10.4 mph - N/A   Overcast
9:54 PM 33.1 °F 23.4 °F 21.9 °F 64% 29.55 in 10.0 mi ENE 13.8 mph - N/A   Overcast
10:54 PM 34.0 °F 26.0 °F 21.9 °F 61% 29.53 in 10.0 mi ENE 10.4 mph - N/A   Overcast
11:54 PM 34.0 °F 26.6 °F 21.9 °F 61% 29.50 in 10.0 mi ENE 9.2 mph - N/A   Overcast